| time (UTC) | temp F | wind direction | speed knots | gust knots | rain 1hr in | rain 24hr in | rain mn in | humidity % | barometer mb |
| 20260831110027 | 43 | 161 | 0.0 | 0.0 | 0.00 | 0.00 | 0.00 | 79 | 1016.4 |
| 20260831104532 | 44 | 161 | 0.0 | 1.7 | 0.00 | 0.00 | 0.00 | 78 | 1016.3 |
| 20260831103021 | 45 | 161 | 0.0 | 0.0 | 0.00 | 0.00 | 0.00 | 75 | 1016.1 |
| 20260831101519 | 46 | 161 | 0.0 | 0.0 | 0.00 | 0.00 | 0.00 | 75 | 1015.8 |
| 20260831100014 | 47 | 161 | 0.0 | 0.0 | 0.00 | 0.00 | 0.00 | 73 | 1015.7 |
| 20260831094510 | 48 | 161 | 0.0 | 0.0 | 0.00 | 0.00 | 0.00 | 70 | 1015.6 |
| 20260831093006 | 51 | 161 | 0.0 | 0.0 | 0.00 | 0.00 | 0.00 | 68 | 1015.7 |
| 20260831091505 | 53 | 161 | 0.0 | 0.0 | 0.00 | 0.00 | 0.00 | 63 | 1015.6 |
| 20260831090105 | 54 | 161 | 0.0 | 0.9 | 0.00 | 0.00 | 0.00 | 62 | 1015.6 |
| 20260831084607 | 54 | 161 | 0.0 | 0.9 | 0.00 | 0.00 | 0.00 | 62 | 1015.6 |
| 20260831083100 | 54 | 161 | 0.0 | 0.9 | 0.00 | 0.00 | 0.00 | 62 | 1015.6 |
| 20260831081558 | 54 | 161 | 0.0 | 0.0 | 0.00 | 0.00 | 0.00 | 62 | 1015.6 |
| 20260831080057 | 54 | 161 | 0.0 | 0.9 | 0.00 | 0.00 | 0.00 | 63 | 1015.5 |
| 20260831074556 | 54 | 161 | 0.0 | 0.0 | 0.00 | 0.00 | 0.00 | 62 | 1015.4 |
| 20260831073054 | 54 | 161 | 0.0 | 0.0 | 0.00 | 0.00 | 0.00 | 61 | 1015.6 |
| 20260831071555 | 55 | 161 | 0.0 | 0.0 | 0.00 | 0.00 | 0.00 | 58 | 1015.3 |
| 20260831070103 | 55 | 161 | 0.0 | 0.9 | 0.00 | 0.00 | 0.00 | 60 | 1015.3 |
| 20260831064548 | 55 | 161 | 0.0 | 1.7 | 0.00 | 0.00 | 0.00 | 57 | 1015.4 |
| 20260831063051 | 55 | 161 | 0.0 | 0.0 | 0.00 | 0.00 | 0.00 | 59 | 1015.5 |
| 20260831061546 | 56 | 161 | 0.0 | 0.0 | 0.00 | 0.00 | 0.00 | 58 | 1015.5 |
| 20260831060042 | 56 | 161 | 0.0 | 0.9 | 0.00 | 0.00 | 0.00 | 57 | 1015.5 |
| 20260831054545 | 56 | 161 | 0.0 | 0.0 | 0.00 | 0.00 | 0.00 | 56 | 1015.5 |
| 20260831053055 | 56 | 161 | 0.0 | 0.9 | 0.00 | 0.00 | 0.00 | 55 | 1015.5 |
| 20260831051544 | 56 | 161 | 0.0 | 0.9 | 0.00 | 0.00 | 0.00 | 56 | 1015.5 |
| 20260831050045 | 56 | 161 | 0.0 | 0.9 | 0.00 | 0.00 | 0.00 | 55 | 1015.5 |
| 20260831044540 | 57 | 161 | 0.0 | 2.6 | 0.00 | 0.00 | 0.00 | 54 | 1015.5 |
| 20260831043043 | 57 | 161 | 1.7 | 5.2 | 0.00 | 0.00 | 0.00 | 53 | 1015.6 |
| 20260831041540 | 57 | 161 | 3.5 | 7.8 | 0.00 | 0.00 | 0.00 | 53 | 1015.3 |
| 20260831040038 | 56 | 161 | 4.3 | 7.8 | 0.00 | 0.00 | 0.00 | 54 | 1015.3 |
| 20260831034541 | 57 | 161 | 3.5 | 7.8 | 0.00 | 0.00 | 0.00 | 54 | 1015.2 |
| 20260831033058 | 57 | 161 | 3.5 | 5.2 | 0.00 | 0.00 | 0.00 | 53 | 1015.1 |
| 20260831031536 | 58 | 161 | 2.6 | 6.1 | 0.00 | 0.00 | 0.00 | 52 | 1014.8 |
| 20260831030034 | 58 | 161 | 2.6 | 4.3 | 0.00 | 0.00 | 0.00 | 53 | 1014.5 |
| 20260831024534 | 58 | 161 | 0.0 | 1.7 | 0.00 | 0.00 | 0.00 | 53 | 1014.6 |
| 20260831023034 | 59 | 161 | 0.0 | 0.0 | 0.00 | 0.00 | 0.00 | 52 | 1014.4 |
| 20260831021533 | 60 | 161 | 0.0 | 0.0 | 0.00 | 0.00 | 0.00 | 52 | 1014.3 |
| 20260831020032 | 62 | 161 | 0.0 | 0.9 | 0.00 | 0.00 | 0.00 | 48 | 1014.3 |
| 20260831014532 | 65 | 161 | 0.0 | 0.9 | 0.00 | 0.00 | 0.00 | 42 | 1014.3 |
| 20260831013032 | 66 | 161 | 0.0 | 1.7 | 0.00 | 0.00 | 0.00 | 41 | 1014.3 |
| 20260831011541 | 67 | 161 | 0.0 | 3.5 | 0.00 | 0.00 | 0.00 | 39 | 1014.4 |
| 20260831010030 | 69 | 161 | 0.0 | 1.7 | 0.00 | 0.00 | 0.00 | 38 | 1014.5 |
| 20260831004530 | 68 | 161 | 0.0 | 2.6 | 0.00 | 0.00 | 0.00 | 38 | 1014.4 |
| 20260831003035 | 67 | 161 | 0.0 | 7.8 | 0.00 | 0.00 | 0.00 | 39 | 1014.5 |
| 20260831001529 | 67 | 161 | 0.9 | 3.5 | 0.00 | 0.00 | 0.00 | 39 | 1014.4 |
| 20260831000035 | 66 | 161 | 0.9 | 3.5 | 0.00 | 0.00 | 0.00 | 41 | 1014.4 |
| 20260830234536 | 65 | 161 | 1.7 | 4.3 | 0.00 | 0.00 | 0.00 | 44 | 1014.5 |
| 20260830233027 | 65 | 161 | 0.9 | 4.3 | 0.00 | 0.00 | 0.00 | 44 | 1014.8 |
| 20260830231527 | 65 | 161 | 1.7 | 5.2 | 0.00 | 0.00 | 0.00 | 43 | 1014.9 |
| 20260830230025 | 66 | 161 | 0.9 | 3.5 | 0.00 | 0.00 | 0.00 | 41 | 1014.9 |
| 20260830224525 | 68 | 161 | 0.0 | 4.3 | 0.00 | 0.00 | 0.00 | 38 | 1015.0 |
| 20260830223024 | 66 | 161 | 1.7 | 4.3 | 0.00 | 0.00 | 0.00 | 39 | 1015.2 |
| 20260830221535 | 65 | 161 | 0.9 | 4.3 | 0.00 | 0.00 | 0.00 | 42 | 1015.2 |
| 20260830220022 | 65 | 161 | 0.0 | 2.6 | 0.00 | 0.00 | 0.00 | 42 | 1015.3 |
| 20260830214522 | 65 | 161 | 0.0 | 4.3 | 0.00 | 0.00 | 0.00 | 41 | 1015.4 |
| 20260830213021 | 66 | 161 | 0.9 | 10.4 | 0.00 | 0.00 | 0.00 | 39 | 1015.4 |
| 20260830211520 | 69 | 161 | 0.9 | 7.8 | 0.00 | 0.00 | 0.00 | 38 | 1015.4 |
| 20260830210016 | 67 | 161 | 0.9 | 8.7 | 0.00 | 0.00 | 0.00 | 39 | 1015.3 |
| 20260830204518 | 66 | 161 | 1.7 | 7.8 | 0.00 | 0.00 | 0.00 | 40 | 1015.2 |
| 20260830203014 | 65 | 161 | 1.7 | 7.0 | 0.00 | 0.00 | 0.00 | 41 | 1015.0 |
| 20260830201513 | 66 | 161 | 0.0 | 5.2 | 0.00 | 0.00 | 0.00 | 40 | 1015.0 |
| 20260830200011 | 67 | 161 | 1.7 | 7.8 | 0.00 | 0.00 | 0.00 | 39 | 1014.9 |
| 20260830194509 | 65 | 161 | 2.6 | 9.6 | 0.00 | 0.00 | 0.00 | 39 | 1015.0 |
| 20260830193007 | 63 | 161 | 0.9 | 8.7 | 0.00 | 0.00 | 0.00 | 44 | 1014.7 |
| 20260830191513 | 63 | 161 | 0.9 | 7.0 | 0.00 | 0.00 | 0.00 | 43 | 1014.8 |
| 20260830190004 | 63 | 161 | 0.9 | 4.3 | 0.00 | 0.00 | 0.00 | 46 | 1014.7 |
| 20260830184502 | 61 | 161 | 0.9 | 5.2 | 0.00 | 0.00 | 0.00 | 48 | 1014.8 |
| 20260830183058 | 60 | 161 | 0.9 | 5.2 | 0.00 | 0.00 | 0.00 | 49 | 1014.7 |
| 20260830181557 | 60 | 161 | 0.0 | 6.1 | 0.00 | 0.00 | 0.00 | 51 | 1014.6 |
| 20260830180100 | 59 | 161 | 0.0 | 3.5 | 0.00 | 0.00 | 0.00 | 54 | 1014.5 |
| 20260830174602 | 59 | 161 | 0.0 | 1.7 | 0.00 | 0.00 | 0.00 | 54 | 1014.3 |
| 20260830173114 | 57 | 161 | 0.0 | 0.9 | 0.00 | 0.00 | 0.00 | 60 | 1014.3 |
| 20260830171557 | 56 | 161 | 0.0 | 1.7 | 0.00 | 0.00 | 0.00 | 62 | 1014.2 |
| 20260830170050 | 56 | 161 | 0.0 | 1.7 | 0.00 | 0.00 | 0.00 | 61 | 1014.0 |
| 20260830164548 | 56 | 161 | 0.9 | 2.6 | 0.00 | 0.00 | 0.00 | 61 | 1014.0 |
| 20260830163046 | 56 | 161 | 0.9 | 3.5 | 0.00 | 0.00 | 0.00 | 62 | 1013.8 |
| 20260830161600 | 57 | 161 | 0.9 | 2.6 | 0.00 | 0.00 | 0.00 | 60 | 1013.4 |
| 20260830160043 | 57 | 161 | 0.0 | 5.2 | 0.00 | 0.00 | 0.00 | 54 | 1013.4 |
| 20260830154543 | 57 | 161 | 0.0 | 7.0 | 0.00 | 0.00 | 0.00 | 55 | 1013.2 |
| 20260830153042 | 56 | 161 | 0.0 | 5.2 | 0.00 | 0.00 | 0.00 | 57 | 1013.3 |
| 20260830151554 | 56 | 161 | 1.7 | 6.1 | 0.00 | 0.00 | 0.00 | 61 | 1013.2 |
| 20260830150041 | 56 | 161 | 2.6 | 7.8 | 0.00 | 0.00 | 0.00 | 60 | 1013.2 |
| 20260830144550 | 55 | 161 | 0.0 | 7.0 | 0.00 | 0.00 | 0.00 | 61 | 1013.2 |
| 20260830143040 | 55 | 161 | 0.9 | 6.1 | 0.00 | 0.00 | 0.00 | 62 | 1013.2 |
| 20260830141539 | 54 | 161 | 4.3 | 8.7 | 0.00 | 0.00 | 0.00 | 63 | 1013.0 |
| 20260830140038 | 54 | 161 | 3.5 | 7.0 | 0.00 | 0.00 | 0.00 | 63 | 1013.1 |
| 20260830134544 | 54 | 161 | 1.7 | 7.0 | 0.00 | 0.00 | 0.00 | 64 | 1013.1 |
| 20260830133037 | 53 | 161 | 4.3 | 7.0 | 0.00 | 0.00 | 0.00 | 66 | 1013.1 |
| 20260830131535 | 53 | 161 | 2.6 | 7.8 | 0.00 | 0.00 | 0.00 | 66 | 1013.2 |
| 20260830130031 | 54 | 161 | 3.5 | 7.0 | 0.00 | 0.00 | 0.00 | 63 | 1013.1 |
| 20260830124536 | 54 | 161 | 2.6 | 5.2 | 0.00 | 0.00 | 0.00 | 62 | 1013.1 |
| 20260830123029 | 54 | 161 | 1.7 | 7.0 | 0.00 | 0.00 | 0.00 | 62 | 1013.1 |
| 20260830121527 | 54 | 161 | 0.9 | 7.8 | 0.00 | 0.00 | 0.00 | 62 | 1013.3 |
| 20260830120025 | 54 | 161 | 1.7 | 11.3 | 0.00 | 0.00 | 0.00 | 62 | 1013.3 |
| 20260830114523 | 54 | 162 | 3.5 | 7.8 | 0.00 | 0.00 | 0.00 | 61 | 1013.3 |
| 20260830113023 | 54 | 162 | 3.5 | 7.8 | 0.00 | 0.00 | 0.00 | 60 | 1013.4 |
| 20260830111520 | 54 | 161 | 2.6 | 8.7 | 0.00 | 0.00 | 0.00 | 59 | 1013.3 |